Location: Quaker Farms
(41.4276°N, 73.1557°W)
Time: 20:15:57
(UTC+00:00)

S-56A Canister/Altair - Pass Details

Date: 19 June 2021
Orbit: 631 x 2501 km, 38.9° (Epoch: 30 July)

Event Time Altitude Azimuth Distance (km) Brightness Sun altitude
Rises 08:51:37 0° 224° (SW) 2,995 - -5.0°
Exits shadow 08:52:59 - 219° (SW) 2,470 9.5 -4.8°
Reaches altitude 10° 08:54:14 10° 212° (SSW) 2,016 9.1 -4.6°
Maximum altitude 08:57:59 27° 153° (SSE) 1,221 8.5 -4.0°
Drops below altitude 10° 09:01:55 10° 95° (E) 2,120 10.6 -3.5°
Sets 09:04:45 0° 84° (E) 3,186 11.9 -3.0°
